Location: Colorado Springs
(38.8340°N, 104.8210°W)
Time: 11:23:12
(UTC-07:00)

Envisat - Pass Details

Date: 14 October 2017
Orbit: 764 x 766 km, 98.2° (Epoch: 18 December)

Event Time Altitude Azimuth Distance (km) Brightness Sun altitude
Exits shadow 20:00:15 27° 47° (NE) 1,452 4.1 -19.9°
Drops below altitude 10° 20:03:33 10° 10° (N) 2,312 5.4 -20.6°
Sets 20:06:06 0° 359° (N) 3,242 6.3 -21.1°
